Date,TemperatureHighF,TemperatureAvgF,TemperatureLowF,DewpointHighF,DewpointAvgF,DewpointLowF,HumidityHigh,HumidityAvg,HumidityLow,PressureMaxIn,PressureMinIn,WindSpeedMaxMPH,WindSpeedAvgMPH,GustSpeedMaxMPH,PrecipitationSumIn
2013-1-1,40,32,19,24,13,-4,62,46,27,29.94,29.71,23,6,28,0.00
2013-1-2,32,21,11,14,1,-11,53,42,33,30.10,29.89,17,5,23,0.00
2013-1-3,31,16,6,6,-8,-16,51,33,23,30.13,29.99,14,4,21,0.00
2013-1-4,40,31,20,21,16,6,65,54,44,29.99,29.80,12,4,18,0.00
2013-1-5,46,34,26,24,16,10,66,49,26,30.27,29.85,13,3,20,0.00
2013-1-6,50,36,27,27,23,13,80,60,39,30.22,29.93,11,2,17,0.00
2013-1-7,43,34,28,27,24,18,84,66,38,30.40,29.95,14,3,18,0.00
2013-1-8,50,38,30,27,26,23,86,61,38,30.37,30.25,14,4,21,0.00
2013-1-9,44,38,26,34,27,20,80,66,47,30.39,29.98,12,3,18,0.00
2013-1-10,51,41,35,25,22,19,54,47,29,30.54,30.02,22,6,32,0.05
2013-1-11,42,37,29,38,28,20,95,70,54,30.52,30.24,9,3,13,0.07
2013-1-12,46,43,39,43,41,38,98,93,82,30.25,30.14,8,2,11,0.01
2013-1-13,52,47,43,50,46,43,99,96,89,30.16,30.00,8,3,12,0.00
2013-1-14,68,54,43,53,42,24,94,68,35,30.27,29.86,15,5,20,0.01
2013-1-15,43,39,35,26,23,20,58,52,48,30.31,30.21,10,3,13,0.00
2013-1-16,35,35,35,20,20,19,55,53,51,30.26,30.22,6,3,8,0.00
2013-1-17,44,36,30,32,25,6,93,68,36,30.09,29.83,14,4,17,0.09
2013-1-18,30,23,17,6,-6,-13,36,27,22,30.43,30.07,18,6,23,0.00
2013-1-19,52,39,24,31,19,-2,69,46,27,30.38,29.91,15,7,24,0.00
2013-1-20,56,37,29,33,11,3,68,34,25,29.91,29.54,24,10,30,0.00
2013-1-21,34,26,22,18,3,-5,78,39,24,30.09,29.79,20,4,25,0.00
2013-1-22,28,21,14,17,2,-12,80,47,24,30.06,29.74,17,6,24,0.00
2013-1-23,21,12,7,-4,-15,-21,44,28,22,30.12,30.02,16,6,25,0.00
2013-1-24,23,11,3,-7,-17,-23,32,26,23,30.18,30.02,23,8,30,0.04
2013-1-25,29,18,8,3,-12,-21,50,26,22,30.26,30.06,20,5,26,0.00
2013-1-26,30,18,12,7,-3,-14,65,40,22,30.22,29.99,19,6,29,0.06
2013-1-27,34,22,14,2,-5,-10,44,30,22,30.46,30.21,21,7,30,0.00
2013-1-28,32,26,19,29,7,-11,90,49,24,30.44,30.03,9,2,12,0.00
2013-1-29,36,32,26,32,26,22,90,80,70,30.20,30.02,10,3,12,0.11
2013-1-30,62,49,30,58,46,-20,99,93,10,30.17,29.49,98,6,99,0.08
2013-1-31,62,50,31,59,37,12,95,65,29,29.59,28.98,28,11,39,0.69
2013-2-1,38,30,23,14,2,-5,50,31,22,30.07,29.59,17,7,27,0.00
2013-2-2,34,26,18,7,0,-6,45,33,24,30.25,30.05,13,4,17,0.00
2013-2-3,27,25,23,18,15,6,77,66,41,30.06,29.73,11,4,13,0.00
2013-2-4,34,26,21,17,4,-6,75,42,24,29.94,29.70,20,6,29,0.00
2013-2-5,30,26,21,21,7,-1,79,46,28,30.04,29.94,8,3,11,0.00
2013-2-6,43,32,26,25,16,-4,82,56,25,30.30,29.93,16,4,21,0.06
2013-2-7,33,25,18,16,-4,-11,58,28,22,30.54,30.30,14,4,21,0.00
2013-2-8,34,30,19,31,25,16,99,82,58,30.50,29.58,33,12,49,0.35
2013-2-9,22,18,14,18,13,4,90,80,61,30.17,29.54,35,12,43,0.31
2013-2-10,47,24,11,17,7,0,69,50,22,30.41,30.17,16,4,23,0.00
2013-2-11,42,34,19,41,29,9,99,84,56,30.36,29.61,10,2,12,0.24
2013-2-12,47,39,35,36,28,23,96,63,43,29.88,29.60,21,6,27,0.01
2013-2-13,48,35,27,28,25,18,74,67,36,29.87,29.70,9,2,12,0.00
2013-2-14,49,37,32,27,21,15,72,54,29,30.00,29.70,12,4,17,0.00
2013-2-15,54,40,28,35,30,20,88,70,44,30.01,29.91,13,4,18,0.00
2013-2-16,40,35,32,31,26,15,89,71,46,29.95,29.72,14,4,22,0.01
2013-2-17,33,22,17,18,6,-9,85,54,27,29.72,29.35,27,12,39,0.56
2013-2-18,35,24,15,1,-5,-9,35,28,23,30.16,29.65,27,10,35,0.34
2013-2-19,46,31,24,42,14,-5,99,54,26,30.17,29.58,9,2,14,0.37
2013-2-20,42,34,27,42,17,4,99,54,26,29.78,29.53,19,7,26,0.01
2013-2-21,34,28,25,11,7,2,52,42,29,30.18,29.77,22,8,28,0.02
2013-2-22,42,33,24,23,18,11,64,55,40,30.40,30.17,14,5,21,0.00
2013-2-23,39,36,34,34,28,22,90,73,60,30.34,29.95,13,4,19,0.18
2013-2-24,38,35,31,38,34,30,99,95,90,29.95,29.69,23,7,33,0.45
2013-2-25,45,36,30,31,28,25,95,76,50,30.26,29.90,10,3,14,0.08
2013-2-26,48,37,30,34,30,27,90,74,52,30.36,30.18,13,3,19,0.00
2013-2-27,41,40,39,40,35,31,96,85,75,30.19,30.01,17,9,25,0.22
2013-2-28,51,40,34,40,35,33,99,83,55,29.65,29.53,8,3,10,0.01
2013-3-1,41,38,36,35,30,25,90,72,59,29.67,29.54,7,4,11,0.00
2013-3-2,44,38,32,30,26,22,68,60,51,29.67,29.62,7,4,10,0.00
2013-3-3,43,37,32,32,26,22,79,67,59,29.64,29.56,8,4,11,0.00
2013-3-4,41,35,31,28,21,17,83,58,44,29.71,29.56,17,9,23,0.00
2013-3-5,45,38,31,32,26,19,80,63,51,30.06,29.72,15,5,20,0.00
2013-3-6,42,37,36,36,30,27,91,76,63,30.11,30.04,27,12,36,0.21
2013-3-7,37,33,31,33,30,26,98,90,65,30.07,29.98,28,14,37,0.45
2013-3-8,33,30,29,32,30,29,99,99,98,30.00,29.91,24,12,33,0.01
2013-3-24,40,34,26,31,23,6,87,63,38,29.96,29.58,15,6,20,0.05
2013-3-25,24,20,16,16,2,-9,85,50,28,29.80,29.37,22,12,30,0.61
2013-3-26,35,26,15,1,-4,-8,35,27,23,30.18,29.81,18,8,29,0.25
2013-3-27,46,40,25,42,29,0,99,70,34,30.16,29.55,9,4,16,0.37
2013-3-28,36,31,26,27,11,4,72,44,27,29.80,29.59,14,8,21,0.01
2013-3-29,34,28,25,14,8,2,61,44,30,30.28,29.79,15,9,22,0.02
2013-3-30,55,47,24,32,28,13,68,50,35,30.42,29.99,11,1,15,3.66
2013-3-31,60,45,31,39,27,18,81,51,23,30.13,29.76,16,2,23,0.01
2013-4-1,64,48,36,48,36,4,98,68,24,29.79,29.51,19,3,24,0.14
2013-4-2,43,36,30,10,7,2,41,30,23,29.95,29.78,24,1,32,0.00
2013-4-3,50,38,31,14,9,3,43,30,22,30.17,29.93,22,1,27,0.00
2013-4-4,58,43,30,31,16,8,48,34,21,30.29,30.06,11,0,17,0.00
2013-4-5,58,47,39,38,26,16,63,46,22,30.07,29.65,14,1,22,0.00
2013-4-6,50,39,32,24,10,1,55,32,21,30.35,29.89,19,1,29,0.05
2013-4-7,54,44,32,40,28,16,77,57,24,30.35,30.01,14,0,26,0.00
2013-4-8,66,52,45,44,39,33,88,64,32,30.14,29.94,8,0,14,0.00
2013-4-9,75,53,45,51,44,38,93,74,35,30.12,29.88,19,2,24,0.19
2013-4-10,48,47,46,45,44,44,94,91,88,30.03,29.95,7,2,10,0.00
2013-4-11,53,47,44,47,41,29,99,80,54,30.16,29.84,10,1,14,0.05
2013-4-12,44,40,38,40,38,30,99,94,63,30.18,29.79,18,5,23,0.46
2013-4-13,52,42,36,41,38,35,99,87,54,29.94,29.75,15,1,22,0.02
2013-4-14,56,48,41,42,33,23,97,60,30,30.23,29.92,15,1,22,0.00
2013-4-15,50,40,36,34,32,29,81,71,50,30.38,30.22,7,1,8,0.00
2013-5-9,62,58,55,62,57,54,99,98,92,29.77,29.61,8,0,11,0.65
2013-5-10,69,61,56,62,58,56,99,89,75,29.67,29.60,2,0,9,0.01
2013-5-11,73,64,60,64,61,57,98,88,67,29.63,29.42,7,1,11,0.04
2013-5-12,72,62,52,63,53,30,99,77,36,29.52,29.29,9,1,15,0.08
2013-5-13,61,52,44,35,30,24,72,44,25,29.74,29.54,8,1,14,0.00
2013-5-14,59,51,43,37,30,25,72,47,28,29.74,29.67,8,1,11,0.00
2013-5-15,65,57,40,54,50,31,92,80,34,29.75,29.39,8,2,16,0.00
2013-5-16,82,68,51,54,40,25,98,47,15,29.53,29.34,18,4,27,0.00
2013-5-21,71,60,52,64,58,51,99,93,73,29.74,29.60,10,2,15,0.12
2013-5-22,63,56,51,58,54,51,99,94,82,29.77,29.59,10,1,11,0.12
2013-5-23,77,64,54,70,61,53,99,92,75,29.64,29.54,5,1,14,0.04
2013-5-24,70,63,52,68,62,51,99,97,87,29.54,29.38,4,1,8,0.56
2013-5-25,54,49,43,53,49,41,99,98,90,29.53,29.39,13,2,16,0.20
2013-5-26,58,49,40,44,41,38,99,75,49,29.78,29.38,10,1,15,0.08
2013-5-27,73,58,44,46,43,28,93,59,20,29.89,29.78,11,0,18,0.00
2013-5-28,69,60,48,54,47,36,86,64,35,29.97,29.87,11,2,16,0.00
2013-5-29,64,60,57,63,58,54,99,96,80,29.91,29.74,8,2,11,0.18